星链-31071 (STARLINK-31071 )

导读

STARLINK-31071是美国SpaceX公司星链(Starlink)星座中的一员,于2023年12月19日发射入轨。星链计划旨在打造全球低轨卫星通信网络,提供覆盖全球的高速宽带互联网服务。该卫星采用平板设计,搭载氪工质霍尔推进器,具备自主避撞能力,设计寿命5-7年,退役后会主动离轨再入大气层烧毁,减少空间碎片影响。作为星链组网卫星,它将助力拓展全球卫星互联网服务覆盖。

基本信息
目录编号:
58602
目录名称:
STARLINK-31071
国际标识:
2023-200P
轨道中心:
EARTH
卫星名称:
星链-31071
卫星全名:
星链-31071 (STARLINK-31071 )
卫星状态:
在轨 (已飞行909 天)
发射日期:
2023-12-19 UTC
国别 :
美国 (US)
星等 :
--
轨道信息
数据来源 国际轨道数据 AOE轨道数据
星历时间 2026-06-15T01:52:04+0800
13小时前
查看轨道信息
2026-06-15T05:00:00+0800
10小时前
查看轨道信息
半长轴 6861.199km 6861.191km
偏心率 0.0001269 0.0001996
轨道倾角 43.003° 42.998°
近地点辐角 267.441° 240.054°
升交点赤经 180.565° 179.826°
平近点角 92.630° 118.579°
近地点 482.191km 481.684km
远地点 483.933km 484.424km
周期 94.267分钟 94.267分钟
每日圈数 15.275758 15.275786
详细信息
固有亮度:
5
最大亮度:
0.3
卫星平台:
Starlink v2.0 mini
覆盖范围:
全球
运营商:
太空探索技术公司
运营商所在国:
美国
制造商(研发单位):
太空探索技术公司
制造商所在国:
美国
使用方式:
暂无
卫星简介
星链(Starlink)计划是由太空探索技术公司(SpaceX)提出的一个巨型低轨卫星互联网星座项目,计划在2019年至2024年间在太空搭建由约1.2万颗卫星组成的“星链”网络,其中1584颗将部署在地球上空550千米处的近地轨道,并从2020年开始工作。该卫星仍在工作。
2D轨道图
3D轨道图
轨道高度分析图
轨道倾角分析图
轨道综合分析图
查看轨道综合分析图